Weather History for Kahului, HI

Change the Weather History Date:

Saturday, March 1, 2014

  Actual Average Record
Temperature  
Mean Temperature 77 °F 72 °F  
Max Temperature 84 °F 81 °F 91 °F (1951)
Min Temperature 70 °F 63 °F 57 °F (1988)
Degree Days  
Heating Degree Days 0 0  
Month to date heating degree days 0 0  
Since 1 July heating degree days 0 0  
Cooling Degree Days 12 7  
Month to date cooling degree days 12 7  
Year to date cooling degree days 523 416  
Growing Degree Days 25 (Base 50)    
Moisture  
Dew Point 68 °F    
Average Humidity 79    
Maximum Humidity 100    
Minimum Humidity 58    
Precipitation  
Precipitation 0.05 in 0.07 in 2.35 in (1990)
Month to date precipitation 0.05 0.07  
Year to date precipitation 6.70 4.83  
Snow  
Snow 0.00 in - - ()
Month to date snowfall 0.0  
Since 1 July snowfall 0.0  
Snow Depth 0.00 in    
Sea Level Pressure  
Sea Level Pressure 29.94 in    
Wind  
Wind Speed 12 mph (South)    
Max Wind Speed 23 mph    
Max Gust Speed 28 mph    
Visibility 10 miles    
Events Rain    
T = Trace of Precipitation, MM = Missing Value Source: NWS Daily Summary

Daily Weather History Graph

Daily Weather History Graph

Search for Another Location

Airport:

Trip Planner

Search our weather history database for the weather conditions in past years. The results will help you decide how hot, cold, wet, or windy it might be!

Date:

Astronomy

Mar. 01, 2014 Rise Set
Actual Time 6:45 AM HST 6:30 PM HST
Civil Twilight 6:23 AM HST 6:52 PM HST
Nautical Twilight 5:57 AM HST 7:18 PM HST
Astronomical Twilight 5:32 AM HST 7:44 PM HST
Moon 6:55 AM HST 7:17 PM HST
Length of Visible Light 12h 29m
Length of Day
11h 44m
New Moon, 0% of the Moon is Illuminated
Mar 1
New Moon
Mar 8
First Quarter
Mar 16
Full
Mar 23
Last Quarter
Mar 30
New

Hourly Weather History & Observations

Time (HST) Temp. Heat Index Dew Point Humidity Pressure Visibility Wind Dir Wind Speed Gust Speed Precip Events Conditions
12:54 AM 72.0 °F - 64.9 °F 78% 29.95 in 10.0 mi South 15.0 mph 20.7 mph N/A   Overcast
1:54 AM 72.0 °F - 66.0 °F 81% 29.94 in 10.0 mi SSE 13.8 mph - N/A   Overcast
2:54 AM 71.1 °F - 64.0 °F 78% 29.92 in 10.0 mi South 11.5 mph - 0.00 in   Scattered Clouds
3:54 AM 72.0 °F - 66.9 °F 84% 29.91 in 10.0 mi South 11.5 mph - N/A   Mostly Cloudy
4:54 AM 72.0 °F - 66.0 °F 81% 29.91 in 10.0 mi South 10.4 mph - N/A   Mostly Cloudy
5:54 AM 71.1 °F - 69.1 °F 93% 29.93 in 9.0 mi South 4.6 mph - 0.03 in Rain Light Rain
6:54 AM 71.1 °F - 69.1 °F 93% 29.95 in 10.0 mi South 6.9 mph - 0.00 in Rain Light Rain
7:54 AM 72.0 °F - 70.0 °F 93% 29.96 in 10.0 mi SSW 9.2 mph - 0.00 in Rain Light Rain
8:54 AM 72.0 °F - 71.1 °F 97% 29.98 in 10.0 mi South 8.1 mph - 0.02 in   Mostly Cloudy
9:54 AM 75.9 °F - 71.1 °F 85% 29.99 in 10.0 mi SSW 8.1 mph - 0.00 in   Mostly Cloudy
10:54 AM 79.0 °F - 69.1 °F 72% 29.98 in 10.0 mi South 16.1 mph - N/A   Mostly Cloudy
11:54 AM 80.1 °F 82.9 °F 69.1 °F 69% 29.96 in 10.0 mi SSW 15.0 mph - 0.00 in   Scattered Clouds
12:54 PM 82.0 °F 84.9 °F 68.0 °F 62% 29.93 in 10.0 mi SSW 18.4 mph - N/A   Scattered Clouds
1:54 PM 82.9 °F 85.4 °F 66.9 °F 58% 29.91 in 10.0 mi SSW 18.4 mph 24.2 mph N/A   Scattered Clouds
2:54 PM 84.0 °F 87.8 °F 69.1 °F 61% 29.90 in 10.0 mi South 17.3 mph - N/A   Mostly Cloudy
3:54 PM 78.1 °F - 68.0 °F 71% 29.89 in 10.0 mi South 13.8 mph - N/A   Mostly Cloudy
4:54 PM 80.1 °F 82.1 °F 66.0 °F 62% 29.90 in 10.0 mi SSW 15.0 mph - N/A   Partly Cloudy
5:54 PM 78.1 °F - 66.0 °F 66% 29.91 in 10.0 mi SSW 13.8 mph - N/A   Overcast
6:54 PM 75.9 °F - 66.9 °F 74% 29.93 in 10.0 mi SSW 9.2 mph - N/A   Scattered Clouds
7:54 PM 73.9 °F - 68.0 °F 82% 29.94 in 10.0 mi SSW 5.8 mph - N/A   Clear
8:54 PM 73.0 °F - 68.0 °F 84% 29.95 in 10.0 mi South 9.2 mph - N/A   Mostly Cloudy
9:54 PM 73.9 °F - 66.9 °F 79% 29.95 in 10.0 mi South 11.5 mph - N/A   Scattered Clouds
10:54 PM 75.0 °F - 69.1 °F 82% 29.95 in 10.0 mi South 10.4 mph - N/A   Scattered Clouds
11:54 PM 75.0 °F - 69.1 °F 82% 29.94 in 10.0 mi South 10.4 mph - N/A   Overcast